• In Deutschland
  • Länderverzeichnis
  • Für 7 Tage
  • Wassertemperatur
  • Satellitenkarten
  • Wetterkarte
  • Widgets
  • user-avatar
    Anmelden

    Stündliche Wetter Metzingen

    Heute, 18 Oktober, Mittwoch

    Zeit Temperatur Niederschläge Wind Luftdruck Luftfeuchtigkeit
    00:00 +13°C° 0 mm 1 m/S 731 mmHg 70%
    01:00 +13°C° 0 mm 1 m/S 731 mmHg 69%
    02:00 +12°C° 0 mm 1 m/S 730 mmHg 68%
    03:00 +12°C° 0 mm 1 m/S 730 mmHg 68%
    04:00 +12°C° 0 mm 1 m/S 730 mmHg 67%
    05:00 +12°C° 0 mm 1 m/S 730 mmHg 67%
    06:00 +11°C° 0 mm 1 m/S 730 mmHg 66%
    07:00 +11°C° 0 mm 1 m/S 729 mmHg 66%
    08:00 +13°C° 0 mm 1 m/S 729 mmHg 61%
    09:00 +16°C° 0 mm 1 m/S 730 mmHg 57%
    10:00 +19°C° 0 mm 1 m/S 730 mmHg 53%
    11:00 +20°C° 0 mm 1 m/S 729 mmHg 50%
    12:00 +21°C° 0 mm 1 m/S 729 mmHg 47%
    13:00 +22°C° 0 mm 1 m/S 729 mmHg 43%
    14:00 +22°C° 0 mm 1 m/S 729 mmHg 48%
    15:00 +21°C° 0 mm 1 m/S 728 mmHg 53%
    16:00 +21°C° 0 mm 1 m/S 728 mmHg 58%
    17:00 +19°C° 0 mm 1 m/S 728 mmHg 63%
    18:00 +16°C° 0 mm 1 m/S 728 mmHg 68%
    19:00 +13°C° 0 mm 1 m/S 728 mmHg 73%
    20:00 +13°C° 0 mm 1 m/S 728 mmHg 75%
    21:00 +13°C° 0 mm 1 m/S 728 mmHg 76%
    22:00 +12°C° 0 mm 1 m/S 728 mmHg 78%
    23:00 +12°C° 0 mm 1 m/S 728 mmHg 78%

    Morgen, 19 Oktober, Donnerstag

    Zeit Temperatur Niederschläge Wind Luftdruck Luftfeuchtigkeit
    00:00 +11°C° 0 mm 1 m/S 728 mmHg 79%
    01:00 +11°C° 0 mm 1 m/S 728 mmHg 79%
    02:00 +11°C° 0 mm 1 m/S 728 mmHg 80%
    03:00 +11°C° 0 mm 1 m/S 727 mmHg 80%
    04:00 +10°C° 0 mm 1 m/S 727 mmHg 81%
    05:00 +10°C° 0 mm 1 m/S 727 mmHg 81%
    06:00 +10°C° 0 mm 1 m/S 727 mmHg 81%
    07:00 +10°C° 0 mm 1 m/S 727 mmHg 81%
    08:00 +12°C° 0 mm 1 m/S 727 mmHg 75%
    09:00 +14°C° 0 mm 1 m/S 727 mmHg 69%
    10:00 +18°C° 0 mm 1 m/S 727 mmHg 63%
    11:00 +18°C° 0 mm 2 m/S 727 mmHg 59%
    12:00 +19°C° 0 mm 2 m/S 727 mmHg 56%
    13:00 +21°C° 0 mm 2 m/S 727 mmHg 52%
    14:00 +20°C° 0 mm 2 m/S 727 mmHg 57%
    15:00 +20°C° 0 mm 2 m/S 726 mmHg 61%
    16:00 +19°C° 0 mm 2 m/S 726 mmHg 66%
    17:00 +17°C° 0 mm 2 m/S 726 mmHg 72%
    18:00 +15°C° 0 mm 2 m/S 726 mmHg 78%
    19:00 +13°C° 0 mm 2 m/S 726 mmHg 85%
    20:00 +13°C° 0 mm 1 m/S 726 mmHg 86%
    21:00 +12°C° 0 mm 1 m/S 726 mmHg 87%
    22:00 +12°C° 0 mm 1 m/S 727 mmHg 89%
    23:00 +11°C° 0 mm 1 m/S 727 mmHg 89%

    übermorgen, 20 Oktober, Freitag

    Zeit Temperatur Niederschläge Wind Luftdruck Luftfeuchtigkeit
    00:00 +11°C° 0 mm 1 m/S 727 mmHg 89%
    01:00 +11°C° 0 mm 1 m/S 727 mmHg 89%
    02:00 +11°C° 0 mm 1 m/S 727 mmHg 89%
    03:00 +11°C° 0 mm 1 m/S 727 mmHg 88%
    04:00 +11°C° 0 mm 1 m/S 727 mmHg 88%
    05:00 +10°C° 0 mm 1 m/S 727 mmHg 87%
    06:00 +10°C° 0 mm 1 m/S 727 mmHg 86%
    07:00 +10°C° 0 mm 1 m/S 728 mmHg 85%
    08:00 +12°C° 0 mm 1 m/S 728 mmHg 78%
    09:00 +15°C° 0 mm 1 m/S 728 mmHg 71%
    10:00 +18°C° 0 mm 1 m/S 729 mmHg 63%
    11:00 +19°C° 0 mm 1 m/S 729 mmHg 59%
    12:00 +20°C° 0 mm 1 m/S 729 mmHg 56%
    13:00 +22°C° 0 mm 1 m/S 729 mmHg 52%
    14:00 +21°C° 0 mm 1 m/S 729 mmHg 55%
    15:00 +21°C° 0 mm 1 m/S 729 mmHg 59%
    16:00 +21°C° 0 mm 1 m/S 728 mmHg 62%
    17:00 +19°C° 0 mm 1 m/S 729 mmHg 67%
    18:00 +16°C° 0 mm 1 m/S 729 mmHg 72%
    19:00 +14°C° 0 mm 1 m/S 729 mmHg 77%
    20:00 +14°C° 0 mm 1 m/S 729 mmHg 79%
    21:00 +13°C° 0 mm 1 m/S 729 mmHg 80%
    22:00 +13°C° 0 mm 1 m/S 730 mmHg 81%
    23:00 +13°C° 0 mm 1 m/S 729 mmHg 81%

    21 Oktober, Samstag

    Zeit Temperatur Niederschläge Wind Luftdruck Luftfeuchtigkeit
    00:00 +12°C° 0 mm 1 m/S 729 mmHg 81%
    01:00 +12°C° 0 mm 1 m/S 729 mmHg 81%
    02:00 +12°C° 0 mm 1 m/S 729 mmHg 80%
    03:00 +12°C° 0 mm 2 m/S 729 mmHg 79%
    04:00 +13°C° 0 mm 2 m/S 729 mmHg 78%
    05:00 +13°C° 0 mm 2 m/S 729 mmHg 77%
    06:00 +13°C° 0 mm 2 m/S 729 mmHg 77%
    07:00 +13°C° 0 mm 2 m/S 729 mmHg 76%
    08:00 +14°C° 0 mm 2 m/S 729 mmHg 72%
    09:00 +16°C° 0 mm 2 m/S 729 mmHg 67%
    10:00 +18°C° 0 mm 3 m/S 729 mmHg 63%
    11:00 +19°C° 0 mm 3 m/S 729 mmHg 59%
    12:00 +20°C° 0 mm 3 m/S 729 mmHg 56%
    13:00 +21°C° 0 mm 4 m/S 729 mmHg 52%
    14:00 +21°C° 0 mm 3 m/S 729 mmHg 57%
    15:00 +20°C° 0 mm 3 m/S 729 mmHg 62%
    16:00 +19°C° 0 mm 2 m/S 729 mmHg 67%
    17:00 +17°C° 0,1 mm 2 m/S 729 mmHg 74%
    18:00 +16°C° 0,1 mm 2 m/S 730 mmHg 81%
    19:00 +14°C° 0,1 mm 2 m/S 730 mmHg 88%
    20:00 +14°C° 0,5 mm 2 m/S 730 mmHg 89%
    21:00 +14°C° 0,5 mm 2 m/S 730 mmHg 90%
    22:00 +14°C° 0,5 mm 2 m/S 731 mmHg 90%
    23:00 +13°C° 0,3 mm 2 m/S 731 mmHg 90%

    22 Oktober, Sonntag

    Zeit Temperatur Niederschläge Wind Luftdruck Luftfeuchtigkeit
    00:00 +13°C° 0,3 mm 2 m/S 731 mmHg 90%
    01:00 +12°C° 0,3 mm 2 m/S 731 mmHg 90%
    02:00 +12°C° 0,6 mm 2 m/S 731 mmHg 90%
    03:00 +11°C° 0,6 mm 3 m/S 731 mmHg 91%
    04:00 +10°C° 0,6 mm 3 m/S 731 mmHg 92%
    05:00 +10°C° 0,5 mm 3 m/S 731 mmHg 92%
    06:00 +10°C° 0,5 mm 3 m/S 731 mmHg 92%
    07:00 +9°C° 0,5 mm 3 m/S 731 mmHg 92%
    08:00 +9°C° 0,4 mm 3 m/S 731 mmHg 90%
    09:00 +10°C° 0,4 mm 3 m/S 732 mmHg 88%
    10:00 +10°C° 0,4 mm 4 m/S 732 mmHg 86%
    11:00 +10°C° 0,2 mm 4 m/S 732 mmHg 84%
    12:00 +10°C° 0,2 mm 4 m/S 733 mmHg 82%
    13:00 +10°C° 0,2 mm 4 m/S 733 mmHg 80%
    14:00 +10°C° 0,1 mm 4 m/S 733 mmHg 78%
    15:00 +10°C° 0,1 mm 4 m/S 733 mmHg 77%
    16:00 +11°C° 0,1 mm 4 m/S 733 mmHg 75%
    17:00 +9°C° 0 mm 3 m/S 733 mmHg 79%
    18:00 +8°C° 0 mm 3 m/S 734 mmHg 82%
    19:00 +7°C° 0 mm 3 m/S 734 mmHg 86%
    20:00 +7°C° 0 mm 3 m/S 735 mmHg 86%
    21:00 +5°C° 0 mm 3 m/S 735 mmHg 86%
    22:00 +5°C° 0 mm 3 m/S 735 mmHg 87%
    23:00 +6°C° 0 mm 2 m/S 736 mmHg 88%

    23 Oktober, Montag

    Zeit Temperatur Niederschläge Wind Luftdruck Luftfeuchtigkeit
    00:00 +6°C° 0 mm 2 m/S 736 mmHg 88%
    01:00 +5°C° 0 mm 2 m/S 736 mmHg 89%
    02:00 +5°C° 0 mm 2 m/S 736 mmHg 90%
    03:00 +5°C° 0 mm 2 m/S 736 mmHg 90%
    04:00 +5°C° 0 mm 2 m/S 736 mmHg 91%
    05:00 +5°C° 0 mm 2 m/S 736 mmHg 91%
    06:00 +4°C° 0 mm 2 m/S 736 mmHg 91%
    07:00 +4°C° 0 mm 2 m/S 737 mmHg 91%
    08:00 +6°C° 0 mm 2 m/S 737 mmHg 84%
    09:00 +8°C° 0 mm 2 m/S 737 mmHg 78%
    10:00 +10°C° 0 mm 3 m/S 737 mmHg 72%
    11:00 +12°C° 0 mm 2 m/S 737 mmHg 67%
    12:00 +13°C° 0 mm 2 m/S 736 mmHg 63%
    13:00 +14°C° 0 mm 2 m/S 736 mmHg 59%
    14:00 +14°C° 0 mm 2 m/S 735 mmHg 61%
    15:00 +14°C° 0 mm 1 m/S 735 mmHg 64%
    16:00 +14°C° 0 mm 1 m/S 735 mmHg 66%
    17:00 +12°C° 0 mm 1 m/S 735 mmHg 70%
    18:00 +11°C° 0 mm 1 m/S 735 mmHg 74%
    19:00 +9°C° 0 mm 1 m/S 735 mmHg 78%
    20:00 +9°C° 0 mm 1 m/S 735 mmHg 77%
    21:00 +9°C° 0 mm 1 m/S 735 mmHg 77%
    22:00 +9°C° 0 mm 1 m/S 735 mmHg 77%
    23:00 +8°C° 0 mm 1 m/S 734 mmHg 76%
    Mehr zeigen